Regional Weather Roundup
Issued by NWS

Home | Current Version | Previous Version | Graphics & Text | Print | Product List | Glossary On
Versions: 1 2 3 4 5 6 7 8 9 10 11 12 13 14 15 16 17 18 19 20 21 22 23 24 25 26 27 28 29 30 31 32 33 34 35 36 37 38 39 40 41 42 43 44 45 46 47 48 49 50
000
ASUS45 KABQ 220501
RWRNM
NEW MEXICO REGIONAL WEATHER ROUNDUP
NATIONAL WEATHER SERVICE ALBUQUERQUE NM
1100 PM MDT SAT APR 21 2018

NOTE: "FAIR" MEANS FEW OR NO CLOUDS BELOW 12,000 FEET AGL WITH NO
       SIGNIFICANT WEATHER OR OBSTRUCTIONS TO VISION.

      THIS PRODUCT IS RELEASED AS TWO VERSIONS.  ONE VERSION NEAR
      THE TOP OF THE HOUR CONTAINING PRELIMINARY DATA FROM ALBUQUERQUE
      AND OTHER STATIONS.  A FINAL VERSION WITH ADDITIONAL DATA IS
      ISSUED ABOUT 10 MINUTES AFTER THE HOUR.

NMZ501-503-504-510>518-220600-
NORTHWEST PLATEAU/NORTHCENTRAL MOUNTAINS

CITY           SKY/WX    TMP DP  RH WIND       PRES   REMARKS
FARMINGTON     FAIR      56  23  27 NW10      30.14R
LOS ALAMOS     FAIR      53  22  29 W14G22    30.19S
SANTA FE       FAIR      48  29  47 SE15G23   30.17R
TAOS           MOCLDY    44  23  43 N8        30.22R
ANGEL FIRE     FAIR      33  25  71 S5        30.25F WCI  29

$$
NMZ402-403-502-505>509-220600-
WESTCENTRAL MOUNTAINS/SOUTHWEST MOUNTAINS

CITY           SKY/WX    TMP DP  RH WIND       PRES   REMARKS
GALLUP         FAIR      43  25  49 S6        30.21S
GRANTS         FAIR      42  21  42 NW10      30.24R
SILVER CITY    FAIR      55  20  26 NE7       30.17R

$$
NMZ407-409-411-412-220600-
SOUTHERN DESERTS

CITY           SKY/WX    TMP DP  RH WIND       PRES   REMARKS
DEMING         FAIR      60  21  22 S5        30.13R
LAS CRUCES     FAIR      60  26  27 SE5       30.14S
HOLLOMAN AFB   FAIR      55  20  26 W5        30.15R
ALAMOGORDO     FAIR      52  23  32 SE6       30.14S
T OR C         FAIR      62  26  25 SW3       30.14S

$$
NMZ519>523-220600-
CENTRAL VALLEYS/CENTRAL HIGHLANDS

CITY           SKY/WX    TMP DP  RH WIND       PRES   REMARKS
ALBUQUERQUE    FAIR      56  26  31 CALM      30.15R
MORIARTY ARPT  FAIR      47  32  56 E12       30.22R
CLINES CORNERS FAIR      39  33  79 E21G26    30.25R WCI  29
BELEN          FAIR      51  20  29 SW6       30.15S
SOCORRO        FAIR      56  26  31 S6        30.14R

$$
NMZ524>526-539-540-220600-
SOUTHCENTRAL MOUNTAINS

CITY           SKY/WX    TMP DP  RH WIND       PRES   REMARKS
RUIDOSO        FAIR      45  21  39 SW7       30.25R

$$
NMZ527>531-220600-
NORTHEAST HIGHLANDS/NORTHEAST PLAINS

CITY           SKY/WX    TMP DP  RH WIND       PRES   REMARKS
LAS VEGAS      MOCLDY    37  35  92 CALM      30.25R
RATON          FAIR      34  30  85 NW3       30.21S
CLAYTON        LGT RAIN  39  39 100 E9        30.22S WCI  33

$$
NMZ532>537-220600-
EASTCENTRAL PLAINS

CITY           SKY/WX    TMP DP  RH WIND       PRES   REMARKS
SANTA ROSA     FAIR      44  37  77 CALM      30.22R
TUCUMCARI      FAIR      45  40  82 E7        30.20R
CANNON AFB     FAIR      40  40 100 NE8       30.20F
CLOVIS AIRPORT FAIR      38  36  92 NE8       30.21S WCI  32

$$
NMZ028-029-538-220600-
SOUTHEAST PLAINS

CITY           SKY/WX    TMP DP  RH WIND       PRES   REMARKS
ROSWELL        FAIR      52  38  58 E3        30.17R
ARTESIA        FAIR      57  37  47 CALM      30.18R
CARLSBAD       FAIR      56  36  47 CALM      30.16R
HOBBS          FAIR      50  39  66 E10       30.17R


$$




USA.gov is the U.S. government's official web portal to all federal, state and local government web resources and services.